"Pseudo-MPEC" for ZTB5F21

Created 2018 Oct 12 20:18:25 UT using Find_Orb

Click here for an explanation of pseudo-MPECs

 
 Astrometry: 
     ZTB5F21  C2018 09 08.25552 23 46 48.46 +27 30 10.5          22.2 GVNEOCPG96
     ZTB5F21  C2018 09 08.26075 23 46 48.03 +27 30 11.7          21.4 GVNEOCPG96
     ZTB5F21  C2018 09 08.26599 23 46 47.63 +27 30 13.4          22.6 GVNEOCPG96
     ZTB5F21  C2018 09 08.27122 23 46 47.21 +27 30 14.6          21.8 GVNEOCPG96
     ZTB5F21  C2018 10 10.20264 23 06 09.81 +25 58 32.3          21.5 GVNEOCPG96
     ZTB5F21  C2018 10 10.20838 23 06 09.43 +25 58 29.9          22.0 GVNEOCPG96
     ZTB5F21  C2018 10 10.21410 23 06 09.08 +25 58 26.6          22.3 GVNEOCPG96
     ZTB5F21  C2018 10 10.21984 23 06 08.76 +25 58 23.8          22.2 GVNEOCPG96
     ZTB5F21  C2018 10 11s0Astrometry=Tb3ni^-,0?W0)FYnJgD0mRaY#I,4@`PSU@kRL?cH01
     ZTB5F21  C2018 10 11\/oK3\oCPJu7)S`5AZuq4*kYleLeNbB]Wmp:9Dfi[oBv^=V44DrZH01
     ZTB5F21  C2018 10 11XsCyErg/M4gQs1=bGg^w%!-mj,fJd9Palu3.=C\QI#\BiT_jAwASH01
     ZTB5F21  C2018 10 11Nnw44GRMQ:sM(CpOsredacted;A1pde/T``ua9$/68C7kJB_CIf%H01
     ZTB5F21 KC2018 10 11F]wu0?-Z]Lil3PgNCE]Z8ZK]^nB[q.a=E^90WjoLZa_d(3-NJA@^L01
     ZTB5F21 KC2018 10 11m#B;EX2-sO-1B=iB-8oAy.+'vm/4O_[Rsee[vQ9b928FD4=gWJ%FL01
     ZTB5F21 KC2018 10 12$h++dxoegD$Hw_y(yaAeSA/h^PycUY/YGn?2mhQZ2U\cn5lGwg3*H21
     ZTB5F21 KC2018 10 12/vLmM%V(^?,45'#I;iXQSLgytfau]Oid.yGm?=yS,q4/@)RRZ+$GH21
     ZTB5F21 KC2018 10 12*R?K9BFQKioYiL.Y%;eP)NJ2'lf'nK3gvM/vX4fMn/jtq#TNEOCPH21

Station data:
(G96) Mt. Lemmon Survey  (N32.442754 W110.788720)  US/Arizona.  Observers B.
   M. Africano, E. J. Christensen, D. C. Fuls, A. R. Gibbs, A. D. Grauer, J.
   A. Johnson, R. A. Kowalski, S. M. Larson, G. J. Leonard, R. L. Seaman, F.
   C. Shelly. 1.5-m reflector + 10K CCD.
(H01) Magdalena Ridge Observatory, Socorro  (N33.984833 W107.189333)  US/New
   Mexico.  Observers W. H. Ryan, E. V. Ryan. Measurer W. H. Ryan. 2.4-m
   f/8.9 reflector + CCD.
(H21) Astronomical Research Observatory, Westfield  (N39.483057 W87.968270)
   US/Illinois. 0.76-m f/3.0 astrograph + CCD.
(L01) Višnjan Observatory, Tičan  (N45.290900 E13.749300)  Croatia.  Observer
   K. Korlević. 1.0-m f/2.9 reflector + CCD.

Orbital elements:  ZTB5F21
   Perihelion 2019 Sep 10.122426 +/- 0.797 TT =  2:56:17 (JD 2458736.622426)
Epoch 2018 Oct 12.0 TT = JDT 2458403.5   Earth MOID: 0.7544   AutoNEOCP
M 232.65633 +/- 0.29                (J2000 ecliptic)
n   0.38227286 +/- 6.94e-5          Peri.  207.07128 +/- 0.22
a   1.88027078 +/- 0.000228         Node   296.36394 +/- 0.026
e   0.0793291 +/- 0.000289          Incl.   15.95543 +/- 0.006
P   2.58/941.72d           H 19.5   G  0.15   U  6.4  
q 1.73111047 +/- 0.000537    Q 2.02943110 +/- 0.000645
From 17 observations 2018 Sept. 8-Oct. 12; mean residual 0".13
Residuals in arcseconds: 
180908 G96  .15+  .04-    181010 G96  .19-  .08-    181011 L01  .17-  .16-    
180908 G96  .11-  .18-    181010 G96  .21+  .07+    181011 L01  .13-  .02-    
180908 G96  .04+  .18+    181011 H01  .07+  .05+    181012 H21  .01+  .05+    
180908 G96  .08-  .04+    181011 H01  .08-  .06-    181012 H21  .24+  .01+    
181010 G96  .24+  .25-    181011 H01  .02-  .04+    181012 H21  .04+  .10+    
181010 G96  .17-  .29+    181011 H01  .00   .01+    

Ephemerides (geocentric):
Date (UTC) HH   RA              Dec         delta   r     elong  mag " sig PA
---- -- -- --  -------------   -----------  ------ ------ -----  --- ---- ---
2018 10 12 20  23 03 45.933   +25 35 22.09  1.0764 1.9771 144.8 22.1  .25 164
2018 10 12 21  23 03 43.785   +25 34 59.45  1.0765 1.9771 144.7 22.1  .26 164
2018 10 12 22  23 03 41.641   +25 34 36.78  1.0766 1.9771 144.7 22.1  .26 164
2018 10 12 23  23 03 39.501   +25 34 14.10  1.0768 1.9770 144.7 22.1  .27 164
2018 10 13 00  23 03 37.366   +25 33 51.41  1.0769 1.9770 144.6 22.1  .28 164
2018 10 13 01  23 03 35.234   +25 33 28.69  1.0771 1.9770 144.6 22.1  .29 164
2018 10 13 02  23 03 33.107   +25 33 05.96  1.0772 1.9769 144.6 22.1  .29 164
2018 10 13 03  23 03 30.984   +25 32 43.21  1.0773 1.9769 144.6 22.1  .30 164
2018 10 13 04  23 03 28.865   +25 32 20.45  1.0775 1.9769 144.5 22.1  .31 163
2018 10 13 05  23 03 26.750   +25 31 57.67  1.0776 1.9768 144.5 22.1  .31 163
2018 10 13 06  23 03 24.640   +25 31 34.87  1.0777 1.9768 144.5 22.1  .32 163
2018 10 13 07  23 03 22.533   +25 31 12.06  1.0779 1.9768 144.5 22.1  .33 163
2018 10 13 08  23 03 20.431   +25 30 49.23  1.0780 1.9768 144.4 22.1  .34 163
2018 10 13 09  23 03 18.333   +25 30 26.38  1.0782 1.9767 144.4 22.1  .34 163
2018 10 13 10  23 03 16.239   +25 30 03.51  1.0783 1.9767 144.4 22.1  .35 163
2018 10 13 11  23 03 14.149   +25 29 40.63  1.0784 1.9767 144.3 22.1  .36 163
2018 10 13 12  23 03 12.064   +25 29 17.74  1.0786 1.9766 144.3 22.1  .36 163
2018 10 13 13  23 03 09.982   +25 28 54.82  1.0787 1.9766 144.3 22.1  .37 163
2018 10 13 14  23 03 07.905   +25 28 31.90  1.0789 1.9766 144.3 22.1  .38 163
2018 10 13 15  23 03 05.832   +25 28 08.95  1.0790 1.9765 144.2 22.1  .39 163
2018 10 13 16  23 03 03.763   +25 27 45.99  1.0792 1.9765 144.2 22.1  .39 163
2018 10 13 17  23 03 01.699   +25 27 23.01  1.0793 1.9765 144.2 22.1  .40 163
2018 10 13 18  23 02 59.638   +25 27 00.02  1.0794 1.9764 144.1 22.1  .41 163
2018 10 13 19  23 02 57.582   +25 26 37.02  1.0796 1.9764 144.1 22.1  .42 163
2018 10 13 20  23 02 55.530   +25 26 13.99  1.0797 1.9764 144.1 22.1  .42 163
2018 10 13 21  23 02 53.482   +25 25 50.95  1.0799 1.9764 144.1 22.1  .43 163
2018 10 13 22  23 02 51.439   +25 25 27.90  1.0800 1.9763 144.0 22.1  .44 162
2018 10 13 23  23 02 49.399   +25 25 04.83  1.0802 1.9763 144.0 22.1  .45 162
2018 10 14 00  23 02 47.364   +25 24 41.74  1.0803 1.9763 144.0 22.1  .45 162
2018 10 14 01  23 02 45.333   +25 24 18.64  1.0805 1.9762 144.0 22.1  .46 162
2018 10 14 02  23 02 43.307   +25 23 55.53  1.0806 1.9762 143.9 22.1  .47 162
2018 10 14 03  23 02 41.284   +25 23 32.40  1.0807 1.9762 143.9 22.1  .48 162
2018 10 14 04  23 02 39.266   +25 23 09.25  1.0809 1.9761 143.9 22.1  .48 162
2018 10 14 05  23 02 37.252   +25 22 46.09  1.0810 1.9761 143.8 22.1  .49 162
2018 10 14 06  23 02 35.242   +25 22 22.92  1.0812 1.9761 143.8 22.1  .50 162
2018 10 14 07  23 02 33.237   +25 21 59.73  1.0813 1.9761 143.8 22.1  .51 162
2018 10 14 08  23 02 31.236   +25 21 36.52  1.0815 1.9760 143.8 22.1  .51 162
2018 10 14 09  23 02 29.239   +25 21 13.30  1.0816 1.9760 143.7 22.1  .52 162
2018 10 14 10  23 02 27.246   +25 20 50.07  1.0818 1.9760 143.7 22.1  .53 162
2018 10 14 11  23 02 25.258   +25 20 26.82  1.0819 1.9759 143.7 22.1  .54 162
2018 10 14 12  23 02 23.273   +25 20 03.56  1.0821 1.9759 143.6 22.1  .54 162
2018 10 14 13  23 02 21.293   +25 19 40.28  1.0822 1.9759 143.6 22.1  .55 162
2018 10 14 14  23 02 19.318   +25 19 16.99  1.0824 1.9758 143.6 22.1  .56 162
2018 10 14 15  23 02 17.346   +25 18 53.68  1.0825 1.9758 143.6 22.1  .57 161
2018 10 14 16  23 02 15.379   +25 18 30.36  1.0827 1.9758 143.5 22.1  .57 161
2018 10 14 17  23 02 13.416   +25 18 07.03  1.0828 1.9758 143.5 22.1  .58 161
2018 10 14 18  23 02 11.458   +25 17 43.68  1.0830 1.9757 143.5 22.1  .59 161
2018 10 14 19  23 02 09.503   +25 17 20.32  1.0831 1.9757 143.4 22.1  .60 161